CST,Max TemperatureF,Mean TemperatureF,Min TemperatureF,Max Dew PointF,MeanDew PointF,Min DewpointF,Max Humidity, Mean Humidity, Min Humidity, Max Sea Level PressureIn, Mean Sea Level PressureIn, Min Sea Level PressureIn, Max VisibilityMiles, Mean VisibilityMiles, Min VisibilityMiles, Max Wind SpeedMPH, Mean Wind SpeedMPH, Max Gust SpeedMPH,PrecipitationIn, CloudCover, Events, WindDirDegrees
2011-12-1,31,26,22,26,21,13,85,72,57,30.45,30.26,30.02,10,10,10,24,12,31,0.00,4,,5
2011-12-2,34,18,1,23,9,-2,87,69,42,30.44,30.25,30.04,10,10,7,26,11,34,0.00,0,,195
2011-12-3,31,28,26,28,26,22,99,89,71,30.07,30.02,29.94,10,5,0,17,9,24,0.13,6,,303
2011-12-4,23,19,14,21,15,11,91,84,81,30.30,30.14,29.99,10,10,10,15,10,,0.00,7,,298
2011-12-5,16,13,10,14,11,7,95,86,76,30.48,30.41,30.34,10,9,2,16,7,20,0.00,8,,344
2011-12-6,7,-1,-9,1,-4,-12,89,84,74,30.44,30.30,30.10,10,10,10,12,6,,0.00,2,,279
2011-12-7,23,14,6,21,12,2,93,84,77,30.11,30.04,29.95,10,10,10,18,13,22,0.00,5,,259
2011-12-8,26,22,17,23,17,12,98,85,66,30.25,30.19,30.13,10,9,2,13,8,,0.00,6,,295
2011-12-9,13,8,3,5,0,-4,80,70,61,30.40,30.32,30.24,10,10,10,16,11,20,0.00,2,,280
2011-12-10,22,10,-1,18,9,-5,95,88,83,30.40,30.29,30.21,10,8,1,20,11,24,0.00,2,,213
2011-12-11,33,28,22,32,27,20,100,94,82,30.18,30.13,30.07,10,4,0,23,18,29,0.00,6,,200
2011-12-12,38,36,33,34,32,30,95,89,83,30.25,30.15,30.08,10,9,4,17,12,21,0.00,8,,193
2011-12-13,36,32,29,36,32,29,100,97,92,30.29,30.22,30.09,7,4,0,12,5,,0.09,8,,103
2011-12-14,42,38,34,43,38,35,100,100,100,29.99,29.80,29.64,10,2,0,20,7,23,0.13,8,,172
2011-12-15,30,24,19,28,22,16,90,79,70,30.34,30.09,29.80,10,10,10,30,21,39,0.01,7,,305
2011-12-16,30,20,11,26,19,10,92,85,77,30.40,30.33,30.24,10,10,10,14,6,,0.00,4,,194
2011-12-17,38,26,15,28,22,15,99,87,65,30.24,30.22,30.17,10,8,0,18,10,23,0.00,1,,265
2011-12-18,50,38,25,36,28,23,89,76,56,30.16,29.97,29.79,10,10,10,21,10,28,0.00,0,,211
2011-12-19,33,30,26,32,24,20,96,79,59,30.24,30.05,29.80,10,10,5,26,16,37,0.00,1,,354
2011-12-20,25,19,13,23,18,12,98,90,81,30.23,29.98,29.74,10,10,7,10,5,,0.00,1,,151
2011-12-21,38,27,16,28,21,14,96,80,59,29.94,29.71,29.62,10,10,7,16,11,21,0.00,1,,258
2011-12-22,29,22,14,27,15,11,90,74,61,30.35,30.25,30.02,10,10,10,22,16,31,0.00,2,,350
2011-12-23,34,22,10,20,14,7,88,75,54,30.35,30.20,30.06,10,10,10,24,12,31,0.00,1,,239
2011-12-24,43,30,16,23,18,13,88,70,43,30.21,30.19,30.17,10,10,10,21,10,23,0.00,0,,244
2011-12-25,41,31,21,24,19,16,82,65,43,30.36,30.29,30.18,10,10,10,17,14,20,0.00,0,,282
2011-12-26,45,33,21,25,22,17,85,66,43,30.21,29.97,29.82,10,10,10,31,14,40,0.00,1,,209
2011-12-27,34,28,23,26,20,13,77,67,54,30.04,29.94,29.83,10,10,10,25,15,34,0.00,2,,313
2011-12-28,43,30,17,24,20,15,90,70,44,30.01,29.86,29.77,10,10,10,16,9,20,0.00,2,,205
2011-12-29,44,36,29,34,28,24,91,72,57,29.68,29.60,29.51,10,10,10,16,11,,0.05,2,,253
2011-12-30,37,34,31,35,33,32,100,96,89,29.86,29.66,29.48,10,7,1,22,11,31,0.15,8,,311
2011-12-31,40,34,28,33,31,28,100,89,73,29.81,29.62,29.48,10,8,3,25,12,37,0.00,1,,169